User: anonymous
Location: Albany
(35.0000°S, 118.0000°E)
Time: 06:14:43
(UTC-04:00)
Language:

Radarsat Rocket - Orbit

View from above orbital plane
View from above orbital plane
View from above satellite
View from above satellite

Ground track
Ground track

The orbit data is extracted from the following two-line orbital elements,

1 23711U 95059B   14104.98518147 -.00000104  00000-0 -12256-3 0  6303
2 23711 100.4441 091.2623 0368711 064.7040 002.7715 13.12641720883705
Epoch (UTC): 14 April 2014 23:38:39
Eccentricity: 0.0368711
inclination: 100.4441°
perigee height: 933 km
apogee height: 1493 km
right ascension of ascending node: 91.2623°
argument of perigee: 64.7040°
revolutions per day: 13.12641720
mean anomaly at epoch: 2.7715°
orbit number at epoch: 88370

The dashed part of the orbit path shows where the satellite is in the earth's shadow,  

DLR